Location: Chimay
(50.0486°N, 4.3171°E)
Time: 17:42:55
(UTC+00:00)

Cosmos 2360 Rocket - Pass Details

Date: 08 August 2020
Orbit: 834 x 845 km, 71.0° (Epoch: 25 September)

Event Time Altitude Azimuth Distance (km) Brightness Sun altitude
Rises 20:26:24 0° 332° (NNW) 3,417 6.8 -10.6°
Reaches altitude 10° 20:29:44 10° 352° (N) 2,478 5.4 -11.0°
Maximum altitude 20:33:30 18° 34° (NNE) 1,983 4.2 -11.5°
Drops below altitude 10° 20:37:15 10° 75° (ENE) 2,470 4.3 -11.9°
Enters shadow 20:39:01 - 87° (E) 2,938 4.6 -12.1°
